Lapse_Rate
6.1 6.2 6.3 6.4 6.4 6.6 6.6 6.6 6.5 6.5 6.4 6.3 6.3 6.2 6.1 6.0 6.0 5.8 5.6 5.8 5.7 5.8 5.6 5.8 6.2 6.0 5.9 5.7 5.6 5.8 5.6 5.4 5.5
6.2 6.3 6.5 6.6 6.6 6.5 6.5 6.5 6.5 6.5 6.4 6.3 6.2 6.2 6.1 6.0 5.9 5.8 5.8 5.7 5.9 5.9 5.8 5.7 5.8 6.2 6.1 5.8 5.9 5.9 5.8 5.6 5.6
6.2 6.3 6.4 6.5 6.5 6.6 6.5 6.4 6.3 6.4 6.3 6.3 6.3 6.2 6.1 6.0 5.9 5.8 5.8 5.9 6.1 6.1 6.0 5.9 5.7 6.0 6.3 6.2 6.1 6.1 6.1 6.0 5.8
6.0 6.2 6.3 6.4 6.5 6.5 6.4 6.3 6.2 6.2 6.1 6.1 6.2 6.1 6.1 6.0 5.9 5.8 5.9 6.0 6.1 6.4 6.3 6.1 5.8 5.8 6.1 6.3 6.3 6.2 6.2 6.2 6.1
6.1 6.1 6.2 6.2 6.2 6.3 6.4 6.3 6.1 6.0 6.0 6.0 5.9 6.0 6.0 5.9 5.8 5.9 6.1 6.2 6.1 6.0 6.1 6.3 5.8 5.9 5.9 6.3 6.3 6.3 6.2 6.2 6.1
6.2 6.2 6.1 6.0 6.1 6.2 6.2 6.2 6.1 6.1 6.0 6.0 6.0 6.0 5.9 5.8 5.8 6.2 6.1 6.0 5.8 5.6 5.6 5.8 5.8 5.8 5.9 6.0 6.3 6.2 6.2 6.1 6.1
6.1 6.2 6.1 6.0 6.0 6.1 6.2 6.1 6.1 6.2 6.3 6.2 6.2 6.1 5.9 5.9 6.2 6.1 5.9 6.0 5.9 5.8 5.8 5.6 5.8 5.6 6.0 6.1 6.3 6.0 6.0 6.1 6.1
6.2 6.2 6.2 6.1 6.1 6.1 6.1 6.1 6.1 6.3 6.4 6.3 6.1 5.9 5.9 6.2 6.2 5.9 6.0 6.0 5.7 5.9 6.0 5.8 5.7 5.7 5.5 6.0 5.5 5.7 5.9 6.0 6.0
6.0 6.1 6.1 6.0 6.0 6.1 6.1 6.0 6.0 6.2 6.3 6.1 6.0 5.8 6.0 6.2 6.0 6.2 6.3 6.2 6.5 6.5 6.4 6.2 5.7 6.0 5.4 5.5 5.2 5.6 5.3 6.0 5.8
5.8 5.9 5.9 5.9 6.0 6.0 6.0 6.1 6.1 6.4 6.3 6.0 6.1 6.2 6.3 6.1 6.3 6.5 6.6 6.9 6.8 6.7 6.9 6.6 6.1 5.7 5.7 5.4 4.8 4.4 4.9 5.8 6.4
6.2 6.2 6.2 6.1 6.1 6.1 6.1 6.2 6.2 6.2 6.2 6.0 6.2 6.3 6.2 6.2 6.5 6.8 7.0 7.0 7.0 7.1 7.7 7.5 7.1 6.4 5.9 5.7 5.1 4.5 4.7 5.3 5.7
6.4 6.3 6.2 6.2 6.2 6.2 6.2 6.1 6.2 6.1 6.1 6.1 6.3 6.3 6.1 6.2 6.7 6.9 7.1 6.9 6.8 7.2 8.0 7.9 7.6 7.2 6.9 5.6 5.1 5.2 4.8 5.0 5.3
6.4 6.3 6.1 6.0 6.1 6.2 6.1 6.1 6.0 5.9 6.1 6.1 6.4 6.2 6.1 6.4 6.8 6.9 7.0 6.8 6.8 7.3 8.2 8.1 7.7 7.4 7.5 6.3 6.3 6.2 5.1 4.6 5.3
6.3 6.2 6.1 6.0 5.9 5.9 5.8 5.8 6.1 5.8 5.8 6.1 6.3 6.1 6.2 6.6 6.8 6.8 6.9 6.7 6.7 7.1 7.6 8.0 7.8 7.7 7.2 7.1 7.0 6.3 6.1 4.5 4.4
6.0 5.9 6.0 5.9 5.9 5.9 5.8 5.7 5.8 5.7 5.8 6.0 6.1 6.1 6.3 6.6 6.7 6.8 6.7 6.7 6.8 6.9 7.5 7.6 7.5 7.6 7.5 7.4 7.2 7.6 6.2 5.7 5.6
5.8 5.8 5.9 5.9 5.9 5.7 5.6 5.6 5.4 5.5 5.6 5.9 6.0 6.1 6.2 6.4 6.6 6.7 6.6 6.6 6.7 6.8 7.1 7.3 6.7 6.6 6.9 7.1 7.0 7.0 6.3 6.6 6.1
5.7 5.7 5.7 5.8 5.8 5.8 5.6 5.4 5.2 5.4 5.3 5.5 5.7 6.0 6.2 6.2 6.4 6.5 6.6 6.6 6.6 6.6 6.7 7.1 6.4 6.2 6.3 6.5 6.4 6.4 6.7 7.0 6.6
5.5 5.7 5.7 5.7 5.7 5.6 5.4 5.3 5.2 5.2 5.3 5.2 5.4 5.8 5.9 6.0 6.0 6.2 6.3 6.4 6.5 6.5 6.5 6.7 6.8 6.3 6.0 5.9 6.0 6.4 6.7 6.5 6.3
5.5 5.6 5.6 5.5 5.5 5.4 5.3 5.2 5.2 5.2 5.2 5.2 5.2 5.5 5.8 5.8 5.8 6.0 6.0 6.1 6.3 6.2 6.3 6.4 6.5 6.5 6.1 6.1 6.7 6.1 6.6 6.3 6.3
5.5 5.4 5.3 5.4 5.4 5.5 5.4 5.3 5.2 5.2 5.1 5.1 5.0 5.2 5.5 5.7 5.8 5.7 5.9 6.0 6.1 6.0 6.2 6.3 6.3 6.4 6.7 6.7 6.4 6.5 6.5 6.2 6.4
Wind_Speed
9 10 10 11 12 13 13 13 13 13 13 14 13 14 14 14 13 11 10 10 11 14 15 15 17 14 16 15 14 14 13 12 12
8 9 10 10 11 11 12 12 13 12 13 14 15 14 14 13 12 12 11 10 14 17 18 18 19 17 15 16 16 16 16 14 14
8 10 10 10 11 12 12 11 12 13 13 14 14 15 14 11 11 12 12 12 14 17 16 20 21 20 19 18 18 18 19 18 16
10 11 10 9 11 12 12 12 12 12 13 13 14 15 15 12 12 12 13 12 14 16 17 16 22 23 24 21 20 21 21 21 20
10 10 11 10 10 11 11 12 13 13 13 14 14 15 13 13 13 13 14 14 14 16 17 18 18 22 25 25 23 21 22 23 22
9 9 10 10 10 10 11 13 14 14 12 13 13 12 13 14 13 14 14 14 14 15 17 18 18 20 22 28 27 25 24 23 22
6 7 9 9 10 10 11 12 12 12 13 14 14 12 13 12 12 13 15 15 14 15 16 16 17 21 21 21 29 31 27 24 24
6 6 8 9 9 9 11 12 12 12 12 12 13 13 12 12 12 13 16 16 14 14 14 14 8 11 12 18 37 35 24 23 25
4 4 6 7 8 8 9 9 11 12 13 12 11 11 10 11 12 14 15 15 13 11 9 4 3 6 9 13 15 15 4 19 23
1 3 5 5 7 5 7 8 7 8 10 12 9 8 9 9 10 11 11 14 13 10 7 1 2 1 1 6 11 9 22 22 17
1 3 4 4 5 6 6 5 4 4 7 6 9 8 8 8 9 10 7 11 11 7 6 3 1 5 3 6 5 9 9 20 20
1 1 3 4 6 6 7 6 6 4 5 6 5 6 7 6 7 9 5 7 8 8 3 4 5 5 0 5 9 9 2 10 9
3 1 2 4 5 4 3 3 4 4 4 5 5 4 5 5 4 4 7 7 7 9 9 7 5 4 3 1 5 7 4 4 2
3 1 2 3 3 3 3 2 1 3 4 6 4 4 4 3 4 6 9 9 10 9 8 11 10 8 4 2 5 7 12 7 3
3 2 2 2 2 3 3 2 2 2 4 4 3 3 4 4 4 5 8 10 11 11 11 8 11 14 14 14 10 11 10 10 6
3 2 1 1 1 2 2 2 3 2 4 3 4 3 4 6 4 4 3 5 10 13 13 9 9 10 12 11 10 11 6 8 7
4 3 2 1 1 3 3 3 3 2 4 2 0 3 3 3 4 4 4 6 6 7 10 11 9 7 7 9 11 8 7 7 8
6 4 3 1 1 1 1 1 2 2 2 4 2 2 1 3 2 3 4 5 4 5 8 9 9 7 5 7 6 9 10 10 8
6 4 3 1 1 1 1 1 1 1 2 2 2 2 1 1 3 2 2 4 5 5 4 5 6 6 4 5 9 9 12 12 11
6 2 2 1 0 2 2 2 1 0 0 0 1 2 1 0 1 3 4 3 4 4 4 4 4 7 9 9 12 15 13 11 10
Wind_Direction
27 22 17 7 8 6 4 1 358 354 350 346 344 343 343 345 344 343 309 284 273 273 265 268 266 251 228 207 196 191 195 204 187
10 11 3 3 4 3 359 358 356 357 352 352 345 346 345 341 332 327 321 303 286 276 273 264 263 257 235 228 210 201 200 205 213
9 4 358 355 353 353 354 353 359 355 353 350 349 348 350 347 336 327 312 303 299 294 283 269 263 256 245 233 227 219 208 207 215
19 22 18 8 359 354 354 355 353 352 349 347 347 345 346 349 336 323 319 303 293 294 294 286 266 264 250 240 233 228 218 211 210
24 18 14 9 7 356 354 352 349 347 347 346 346 343 340 336 327 322 316 312 302 293 291 283 277 263 254 244 234 227 224 216 216
19 15 15 12 7 4 356 352 348 348 347 343 342 341 336 331 320 318 314 309 306 305 298 285 274 268 266 252 239 222 219 217 215
20 14 14 9 5 3 359 355 351 348 342 340 341 339 330 326 318 313 311 312 304 304 305 302 289 268 254 265 267 231 213 215 220
19 13 11 6 2 355 352 350 348 340 338 335 332 329 328 319 316 312 308 306 300 303 311 317 24 42 28 1 340 211 214 217 221
7 11 4 3 354 340 345 344 338 336 336 333 322 319 318 312 316 313 309 305 299 296 306 53 68 48 45 37 338 359 36 355 256
310 359 4 354 347 343 335 338 333 330 331 325 314 307 310 310 321 308 320 319 306 296 295 170 163 146 190 79 67 336 1 323 292
309 347 348 341 340 333 330 327 322 319 321 312 308 302 306 312 309 308 337 343 323 302 293 344 359 199 171 116 108 93 350 328 339
258 324 334 328 333 336 343 339 334 331 325 308 303 305 309 316 307 310 351 9 352 352 18 38 29 3 115 161 177 141 117 305 342
204 267 306 321 331 338 338 332 335 328 320 313 308 313 314 313 317 335 357 21 16 10 24 38 20 11 342 278 182 154 100 330 87
208 219 290 322 337 353 342 320 13 322 322 323 317 346 8 358 23 44 38 40 50 39 21 24 27 24 67 110 86 91 122 138 110
237 255 287 339 354 350 349 328 325 290 312 322 338 12 23 37 45 53 54 41 43 49 52 46 27 33 56 60 76 86 92 97 86
250 241 275 345 0 328 333 324 351 324 333 349 354 16 42 43 36 39 43 42 33 32 27 30 39 28 37 60 68 67 70 76 81
279 236 246 228 354 2 12 24 338 306 14 43 286 12 341 18 29 27 33 31 12 24 9 13 19 38 43 46 46 59 59 66 66
309 259 227 202 127 352 339 341 26 339 330 30 108 39 337 328 332 17 30 21 22 354 355 2 10 17 52 81 72 58 56 52 46
339 279 232 214 175 269 266 182 197 119 357 331 31 40 152 54 335 332 342 5 24 1 346 349 355 15 43 67 66 55 48 39 31
355 333 210 231 223 272 262 278 268 208 143 242 14 20 1 72 124 297 324 356 9 2 357 354 23 58 74 71 55 45 41 32 27